ETD77 OMAA-EGCC

Flight info

Callsign ETD77
Flight time N/A
Altitude 30000
Route DAXIB DCT KATIT DCT KUTNA DCT SITER T556 NOSGI M430 KSA M321 IVONU Z710 SOKOP V166 GAS G662 HIL V16 ITEPU DCT GETAN/N0488F320 DCT LAKTO L324 SAFTA N159 KAVOS UM1 GUDIS UN133 KPC DCT BITLA DCT MAVAR DCT AKIKA DCT NEMEK DCT NIPEL DCT SIMBA/N0472F340 DCT AKINI T159 PETIX Z744 COSJE T892 RIDSU Z114 DONAB Y180 BITBU Y181 GOPAS N852 TERLA L608 BUB M624 NIK L610 GILDA M14 STOAT L613 MOGLI/N0468F330 DCT OTBED
Aircraft B77W/H-SDE1E2E3FGHIJ2J3J4J5M1RWXY/LB1D1

Departure

Time 2026-04-28 22:47
Airport Zayed International Airport (OMAA)

Arrival

Time N/A
Airport Manchester Airport (EGCC)
Time Latitude Longitude Altitude Speed Heading
2026-04-28 22:28 24.44474 54.64552 81 ft 0 kts 307°
2026-04-28 22:37 24.44473 54.64553 81 ft 3 kts 307°
2026-04-28 22:37 24.44458 54.64576 103 ft 4 kts 308°
2026-04-28 22:37 24.44441 54.64598 83 ft 4 kts 311°
2026-04-28 22:37 24.44428 54.64613 86 ft 2 kts 332°
2026-04-28 22:38 24.44417 54.64616 86 ft 2 kts 21°
2026-04-28 22:38 24.44407 54.64610 86 ft 2 kts 36°
2026-04-28 22:38 24.44402 54.64606 86 ft 0 kts 38°
2026-04-28 22:40 24.44422 54.64623 86 ft 11 kts 38°
2026-04-28 22:40 24.44536 54.64721 85 ft 28 kts 39°
2026-04-28 22:41 24.44694 54.64853 85 ft 28 kts 37°
2026-04-28 22:41 24.44851 54.64985 85 ft 28 kts 37°
2026-04-28 22:41 24.45009 54.65117 85 ft 28 kts 37°
2026-04-28 22:41 24.45179 54.65203 85 ft 28 kts 339°
2026-04-28 22:42 24.45312 54.65045 85 ft 28 kts 306°
2026-04-28 22:42 24.45435 54.64875 84 ft 28 kts 307°
2026-04-28 22:42 24.45553 54.64704 82 ft 28 kts 307°
2026-04-28 22:42 24.45672 54.64531 71 ft 28 kts 307°
2026-04-28 22:43 24.45794 54.64360 68 ft 28 kts 308°
2026-04-28 22:43 24.45916 54.64189 68 ft 28 kts 307°
2026-04-28 22:43 24.46037 54.64018 67 ft 28 kts 308°
2026-04-28 22:43 24.46159 54.63846 71 ft 28 kts 308°
2026-04-28 22:44 24.46281 54.63676 67 ft 28 kts 309°
2026-04-28 22:44 24.46424 54.63651 69 ft 0 kts 35°
2026-04-28 22:44 24.46424 54.63650 69 ft 0 kts 35°
2026-04-28 22:45 24.46441 54.63669 65 ft 11 kts 50°
2026-04-28 22:45 24.46476 54.63816 74 ft 28 kts 88°
2026-04-28 22:45 24.46445 54.63916 70 ft 0 kts 126°
2026-04-28 22:45 24.46429 54.63940 65 ft 21 kts 126°
2026-04-28 22:46 24.46187 54.64272 67 ft 89 kts 128°
2026-04-28 22:46 24.45679 54.64997 68 ft 149 kts 127°
2026-04-28 22:46 24.44942 54.66040 87 ft 194 kts 127°
2026-04-28 22:46 24.44105 54.67240 477 ft 198 kts 127°
2026-04-28 22:47 24.43244 54.68444 943 ft 205 kts 125°
2026-04-28 22:47 24.42321 54.69640 1413 ft 209 kts 126°
2026-04-28 22:47 24.41289 54.70852 1725 ft 225 kts 127°
2026-04-28 22:47 24.40349 54.72299 1743 ft 244 kts 110°
2026-04-28 22:48 24.40075 54.74083 2065 ft 237 kts 71°
2026-04-28 22:48 24.40754 54.75688 2548 ft 234 kts 59°
2026-04-28 22:48 24.41361 54.77387 2961 ft 244 kts 75°
2026-04-28 22:48 24.41580 54.79244 3532 ft 248 kts 86°
2026-04-28 22:49 24.41529 54.81158 4070 ft 254 kts 93°
2026-04-28 22:49 24.41334 54.83098 4610 ft 258 kts 95°
2026-04-28 22:49 24.41079 54.85075 5107 ft 263 kts 97°
2026-04-28 22:49 24.40828 54.87072 5665 ft 264 kts 89°
2026-04-28 22:50 24.41169 54.89042 6063 ft 266 kts 60°
2026-04-28 22:50 24.42269 54.90656 6498 ft 269 kts 40°
2026-04-28 22:50 24.43864 54.91771 6745 ft 276 kts 12°
2026-04-28 22:50 24.45770 54.92090 7038 ft 281 kts
2026-04-28 22:51 24.47704 54.92327 6985 ft 278 kts
2026-04-28 22:51 24.49594 54.92466 6983 ft 273 kts 349°
2026-04-28 22:51 24.51392 54.91868 7334 ft 274 kts 337°
2026-04-28 22:51 24.53201 54.91129 7837 ft 278 kts 337°
2026-04-28 22:52 24.55034 54.90388 7988 ft 283 kts 337°
2026-04-28 22:52 24.56883 54.89640 7987 ft 283 kts 337°
2026-04-28 22:52 24.58728 54.88896 7981 ft 281 kts 338°
2026-04-28 22:52 24.60561 54.88157 7983 ft 280 kts 337°
2026-04-28 22:53 24.62388 54.87421 8001 ft 280 kts 337°
2026-04-28 22:53 24.64210 54.86686 8562 ft 280 kts 337°
2026-04-28 22:53 24.66055 54.85941 9106 ft 285 kts 337°
2026-04-28 22:53 24.67904 54.85194 9705 ft 288 kts 336°
2026-04-28 22:54 24.69820 54.84421 10278 ft 292 kts 336°
2026-04-28 22:54 24.71787 54.83625 10525 ft 309 kts 336°
2026-04-28 22:54 24.73750 54.82767 11025 ft 309 kts 326°
2026-04-28 22:54 24.75292 54.81257 11857 ft 291 kts 304°
2026-04-28 22:55 24.76262 54.79342 12622 ft 285 kts 290°
2026-04-28 22:55 24.76977 54.77305 13244 ft 284 kts 289°
2026-04-28 22:55 24.77664 54.75282 13985 ft 279 kts 289°
2026-04-28 22:55 24.78351 54.73288 14567 ft 279 kts 289°
2026-04-28 22:56 24.79050 54.71288 15058 ft 281 kts 289°
2026-04-28 22:56 24.79760 54.69272 15562 ft 284 kts 289°
2026-04-28 22:56 24.80477 54.67239 16071 ft 285 kts 288°
2026-04-28 22:56 24.81063 54.65156 16575 ft 286 kts 282°
2026-04-28 22:57 24.81509 54.63013 17078 ft 288 kts 280°
2026-04-28 22:57 24.81928 54.60850 17584 ft 290 kts 280°
2026-04-28 22:57 24.82353 54.58667 18088 ft 292 kts 280°
2026-04-28 22:57 24.82788 54.56471 18527 ft 295 kts 280°
2026-04-28 22:58 24.83233 54.54257 18967 ft 297 kts 280°
2026-04-28 22:58 24.83685 54.52031 19414 ft 299 kts 280°
2026-04-28 22:58 24.84145 54.49786 19870 ft 301 kts 280°
2026-04-28 22:58 24.84608 54.47533 20095 ft 313 kts 280°
2026-04-28 22:59 24.85097 54.45150 20326 ft 323 kts 280°
2026-04-28 22:59 24.85601 54.42706 20669 ft 331 kts 280°
2026-04-28 22:59 24.86114 54.40220 21106 ft 335 kts 280°
2026-04-28 22:59 24.86633 54.37712 21635 ft 336 kts 280°
2026-04-28 23:00 24.87153 54.35192 22174 ft 337 kts 280°
2026-04-28 23:00 24.87675 54.32662 22683 ft 340 kts 279°
2026-04-28 23:00 24.88199 54.30114 23154 ft 343 kts 279°
2026-04-28 23:00 24.88731 54.27528 23567 ft 347 kts 279°
2026-04-28 23:01 24.89265 54.24930 24007 ft 348 kts 279°
2026-04-28 23:01 24.89798 54.22335 24475 ft 349 kts 279°
2026-04-28 23:01 24.90295 54.19755 24858 ft 348 kts 274°
2026-04-28 23:01 24.90183 54.17106 25127 ft 349 kts 255°
2026-04-28 23:02 24.89314 54.14611 25508 ft 352 kts 243°
2026-04-28 23:02 24.87964 54.12349 25907 ft 357 kts 231°
2026-04-28 23:02 24.86081 54.10507 26108 ft 367 kts 221°
2026-04-28 23:02 24.84009 54.08819 26375 ft 374 kts 220°
2026-04-28 23:03 24.81878 54.07153 26777 ft 376 kts 220°
2026-04-28 23:03 24.79734 54.05488 27223 ft 377 kts 220°
2026-04-28 23:03 24.77593 54.03812 27661 ft 378 kts 220°
2026-04-28 23:03 24.75450 54.02120 28052 ft 380 kts 221°
2026-04-28 23:04 24.73293 54.00401 28415 ft 383 kts 221°
2026-04-28 23:04 24.68952 53.96915 29137 ft 388 kts 221°
2026-04-28 23:04 24.66768 53.95155 29506 ft 390 kts 221°
2026-04-28 23:05 24.64574 53.93386 29852 ft 393 kts 221°
2026-04-28 23:05 24.62389 53.91623 30099 ft 395 kts 221°
2026-04-28 23:05 24.60162 53.89827 30339 ft 399 kts 221°
2026-04-28 23:05 24.57916 53.88016 30581 ft 402 kts 221°
2026-04-28 23:06 24.55658 53.86196 30842 ft 404 kts 221°
2026-04-28 23:06 24.53384 53.84365 31048 ft 407 kts 221°
2026-04-28 23:06 24.51095 53.82523 31280 ft 410 kts 221°
2026-04-28 23:06 24.48782 53.80662 31502 ft 412 kts 221°
2026-04-28 23:07 24.46459 53.78794 31641 ft 417 kts 221°
2026-04-28 23:07 24.44106 53.76902 31693 ft 421 kts 221°
2026-04-28 23:07 24.39378 53.73108 31741 ft 419 kts 221°
2026-04-28 23:08 24.34711 53.69367 31752 ft 417 kts 221°
2026-04-28 23:08 24.30010 53.65599 31763 ft 419 kts 221°
2026-04-28 23:09 24.25287 53.61815 31763 ft 421 kts 221°
2026-04-28 23:09 24.20541 53.58017 31759 ft 422 kts 221°
2026-04-28 23:10 24.15787 53.54217 31762 ft 422 kts 221°
2026-04-28 23:10 24.11042 53.50429 31759 ft 422 kts 221°
2026-04-28 23:11 24.06305 53.46651 31759 ft 420 kts 221°
2026-04-28 23:11 24.01595 53.42894 31771 ft 425 kts 221°
2026-04-28 23:12 23.96752 53.39031 31778 ft 436 kts 221°
2026-04-28 23:12 23.91781 53.35073 31777 ft 446 kts 221°
2026-04-28 23:13 23.86736 53.31063 31775 ft 456 kts 221°
2026-04-28 23:13 23.81559 53.26954 31773 ft 463 kts 220°